Regional Weather Roundup
Issued by NWS

Home | Current Version | Previous Version | Text Only | Print | Product List | Glossary On
Versions: 1 2 3 4 5 6 7 8 9 10 11 12 13 14 15 16 17 18 19 20 21 22 23 24 25 26 27 28 29 30 31 32 33 34 35 36 37 38 39 40 41 42 43 44 45 46 47 48 49 50
000
ASUS44 KOUN 210210
RWROK

WEATHER ROUNDUP FOR OKLAHOMA
NATIONAL WEATHER SERVICE NORMAN OK
900 PM CDT SAT SEP 20 2014

NOTE: "FAIR" INDICATES FEW OR NO CLOUDS BELOW 12,000 FEET WITH NO
      SIGNIFICANT WEATHER AND/OR OBSTRUCTIONS TO VISIBILITY.

OKZ001>007-009>012-014-015-017-210300-
NORTHWEST OKLAHOMA AND THE PANHANDLE

CITY           SKY/WX    TMP DP  RH WIND       PRES   REMARKS
GAGE           CLEAR     76  64  66 S8        30.02R
ENID/WOODRING  PTCLDY    77  66  69 S12       29.98R
$$

OKZ016-021>023-033>039-044-045-210300-
SOUTHWEST OKLAHOMA

CITY           SKY/WX    TMP DP  RH WIND       PRES   REMARKS
LAWTON/REGL    MOCLDY    81  66  60 SE5       30.00R
FREDERICK      CLEAR     79  67  66 SE5       29.97R
CLINTON        CLEAR     77  64  64 S6        30.04R
HOBART         CLEAR     80  65  59 S8        30.02R
ALTUS AFB      CLEAR     78  68  71 SW2       30.01R
$$

OKZ018>020-024>031-210300-
CENTRAL OKLAHOMA

CITY           SKY/WX    TMP DP  RH WIND       PRES   REMARKS
OKLAHOMA CITY  PTCLDY    76  67  73 SE8       30.01R
OKC/WILEY POST PTCLDY    81  67  62 S7        30.01R
OKC/TINKER AFB CLEAR     77  67  71 S7        30.02R
STILLWATER     CLEAR     77  67  71 SE7       29.99R
GUTHRIE        CLEAR     78  68  71 S6        30.00R
$$

OKZ008-013-054>072-210300-
NORTHEAST OKLAHOMA

CITY           SKY/WX    TMP DP  RH WIND       PRES   REMARKS
TULSA          PTCLDY    80  68  66 S8        29.98S
TULSA/JONES    CLEAR     73  69  87 SW3       29.98S
PONCA CITY     CLEAR     82  66  58 S5        29.97S
BARTLESVILLE   CLEAR     74  69  85 CALM      29.97F
MUSKOGEE       CLEAR     72  68  87 SE3       30.00R
$$

OKZ032-040>043-046>053-073>077-210300-
SOUTH CENTRAL/SOUTHEAST OKLAHOMA

CITY           SKY/WX    TMP DP  RH WIND       PRES   REMARKS
ARDMORE/DWNTWN CLEAR     73  68  83 CALM      30.00R
MCALESTER      CLEAR     75  67  76 CALM      30.01R
$$



USA.gov is the U.S. government's official web portal to all federal, state and local government web resources and services.